Weather History for KCCR - March, 2014

Change the Weather History Date:

Tuesday, March 4, 2014

  Actual Average Record
Temperature  
Mean Temperature 57 °F 55 °F  
Max Temperature 61 °F 65 °F 73 °F (2012)
Min Temperature 52 °F 45 °F 39 °F (2008)
Degree Days  
Heating Degree Days 8    
Month to date heating degree days 36  
Since 1 July heating degree days 1782  
Cooling Degree Days 0    
Month to date cooling degree days 0  
Year to date cooling degree days 0  
Growing Degree Days 6 (Base 50)    
Moisture  
Dew Point 53 °F    
Average Humidity 86    
Maximum Humidity 100    
Minimum Humidity 72    
Precipitation  
Precipitation 0.01 in - 0.45 in (2001)
Month to date precipitation 0.14  
Year to date precipitation 4.73  
Since 1 July precipitation 7.21  
Sea Level Pressure  
Sea Level Pressure 30.06 in    
Wind  
Wind Speed 2 mph (NNE)    
Max Wind Speed 9 mph    
Max Gust Speed 12 mph    
Visibility 7 miles    
Events Rain    
T = Trace of Precipitation, MM = Missing Value Source: NWS Daily Summary

Daily Weather History Graph

Daily Weather History Graph

Search for Another Location

Airport or City:

Trip Planner

Search our weather history database for the weather conditions in past years. The results will help you decide how hot, cold, wet, or windy it might be!

Date:

Astronomy

Mar. 04, 2014 Rise Set
Actual Time 6:35 AM PST 6:04 PM PST
Civil Twilight 6:09 AM PST 6:31 PM PST
Nautical Twilight 5:38 AM PST 7:01 PM PST
Astronomical Twilight 5:08 AM PST 7:32 PM PST
Moon 8:29 AM PST (3/4) 10:13 PM PST (3/4)
Length of Visible Light 12h 22m
Length of Day
11h 29m
Waxing Crescent, 15% of the Moon is Illuminated
Mar 4
Waxing Crescent
Mar 8
First Quarter
Mar 16
Full
Mar 23
Last Quarter
Mar 30
New

Hourly Weather History & Observations

Time (PST) Temp. Dew Point Humidity Pressure Visibility Wind Dir Wind Speed Gust Speed Precip Events Conditions
12:51 AM 53.6 °F 51.8 °F 94% 30.08 in 10.0 mi Calm Calm - N/A   Overcast
12:53 AM 53.1 °F 51.1 °F 93% 30.04 in 10.0 mi Calm Calm - N/A   Overcast
1:53 AM 54.0 °F 52.0 °F 93% 30.04 in 10.0 mi Calm Calm - N/A   Overcast
2:53 AM 53.1 °F 52.0 °F 96% 30.04 in 6.0 mi Calm Calm - 0.00 in   Overcast
3:34 AM 53.1 °F 52.0 °F 96% 30.08 in 2.5 mi Calm Calm - 0.00 in Rain Light Rain
3:53 AM 53.1 °F 52.0 °F 96% 30.04 in 2.5 mi Calm Calm - 0.01 in   Overcast
3:56 AM 53.1 °F 52.0 °F 96% 30.07 in 3.0 mi Calm Calm - N/A   Overcast
4:18 AM 53.1 °F 52.0 °F 96% 30.07 in 3.0 mi Calm Calm - N/A   Overcast
4:53 AM 53.1 °F 52.0 °F 96% 30.03 in 5.0 mi Calm Calm - N/A   Overcast
5:27 AM 53.1 °F 53.1 °F 100% 30.08 in 6.0 mi Calm Calm - N/A   Overcast
5:53 AM 53.1 °F 52.0 °F 96% 30.05 in 3.0 mi Calm Calm - N/A   Overcast
6:14 AM 53.1 °F 53.1 °F 100% 30.09 in 4.0 mi Calm Calm - N/A   Overcast
6:30 AM 53.1 °F 53.1 °F 100% 30.09 in 4.0 mi Calm Calm - N/A   Overcast
6:53 AM 53.1 °F 53.1 °F 100% 30.06 in 2.0 mi Calm Calm - N/A   Overcast
7:21 AM 53.1 °F 52.0 °F 96% 30.10 in 4.0 mi NNE 5.8 mph - N/A   Overcast
7:53 AM 53.1 °F 53.1 °F 100% 30.08 in 4.0 mi NNE 5.8 mph - N/A   Overcast
8:19 AM 53.1 °F 53.1 °F 100% 30.13 in 5.0 mi NE 5.8 mph - N/A   Overcast
8:53 AM 53.1 °F 53.1 °F 100% 30.09 in 5.0 mi NE 6.9 mph - N/A   Overcast
9:53 AM 54.0 °F 52.0 °F 93% 30.09 in 5.0 mi NNE 8.1 mph - N/A   Overcast
10:53 AM 55.0 °F 54.0 °F 96% 30.10 in 4.0 mi NNE 5.8 mph - N/A   Overcast
11:53 AM 55.9 °F 53.1 °F 90% 30.09 in 10.0 mi Calm Calm - N/A   Overcast
12:53 PM 57.9 °F 53.1 °F 84% 30.06 in 10.0 mi Variable 4.6 mph - N/A   Overcast
1:53 PM 59.0 °F 54.0 °F 83% 30.04 in 10.0 mi North 6.9 mph - N/A   Overcast
2:53 PM 60.1 °F 54.0 °F 80% 30.03 in 10.0 mi NE 5.8 mph - N/A   Overcast
3:53 PM 60.1 °F 53.1 °F 78% 30.03 in 10.0 mi Calm Calm - N/A   Overcast
4:53 PM 61.0 °F 53.1 °F 75% 30.02 in 10.0 mi Calm Calm - N/A   Overcast
5:53 PM 60.1 °F 52.0 °F 75% 30.03 in 10.0 mi Calm Calm - N/A   Mostly Cloudy
6:53 PM 57.9 °F 53.1 °F 84% 30.04 in 10.0 mi Calm Calm - N/A   Mostly Cloudy
7:53 PM 57.0 °F 53.1 °F 87% 30.04 in 10.0 mi ENE 4.6 mph - N/A   Partly Cloudy
8:53 PM 55.0 °F 53.1 °F 93% 30.05 in 10.0 mi Calm Calm - N/A   Clear
9:53 PM 52.0 °F 52.0 °F 100% 30.06 in 10.0 mi Calm Calm - N/A   Clear
10:53 PM 52.0 °F 52.0 °F 100% 30.06 in 10.0 mi Calm Calm - N/A   Clear
11:53 PM 52.0 °F 52.0 °F 100% 30.06 in 10.0 mi Calm Calm - N/A   Clear